Home > Weather > Kalisz > Past weeks

Flag for Poland Past Weather in Kalisz, Poland — Yesterday and Last 2 Weeks

Now
67 °F

Overcast.


Feels Like: 67 °F
Forecast: 54 / 81 °F
Wind: 2 mph from Northwest

Location: Kalisz

Current Time: Jun 28, 2016 at 10:38:53 PM

Latest Report: Jun 28, 2016 at 9:00 PM


Visibility: 31 mi

Pressure: 30.01 "Hg

Humidity: 72%

Dew Point: 57 °F

Location of KaliszLocation

Past Weather in Kalisz — Graph

°F

Kalisz Temperature Yesterday

Maximum temperature yesterday: 71 °F (at 3:00 PM)
Minimum temperature yesterday: 56 °F (at 5:00 AM)
Average temperature yesterday: 65 °F

High & Low Weather Summary for the Past Weeks

 TemperatureHumidityPressure
High94 °F (Jun 25, 5:00 PM)100% (Jun 15, 6:00 AM)30.31 "Hg (Jun 15, 6:00 AM)
Low54 °F (Jun 21, 5:00 AM)32% (Jun 25, 6:00 PM)29.38 "Hg (Jun 17, 10:00 AM)
Average67 °F75%29.94 "Hg
* Reported Jun 13 9:00 PM — Jun 28 9:00 PM, Kalisz, Weather by CustomWeather, © 2016

Note: Actual official high and low records may vary slightly from our data, if they occured in-between our weather recording intervals... More about our weather records

Advertising

Kalisz Weather History for the Previous 24 Hours

Scroll right to see more
 ConditionsComfort  
Time TempWeatherWind HumidityBarometerVisibility
9:00 PM
Tue, Jun 28
67 °FOvercast.2 mph72%30.01 "Hg31 mi
8:00 PM70 °FScattered clouds.2 mph61%30.00 "Hg28 mi
7:00 PM73 °FPartly sunny.7 mph57%29.99 "Hg25 mi
6:00 PMN/APassing clouds.29 mphN/AN/A0 mi
5:00 PM76 °FPartly sunny.2 mph45%29.98 "Hg16 mi
4:00 PM76 °FPartly sunny.5 mph40%29.98 "Hg12 mi
3:00 PM76 °FPartly sunny.5 mph46%30.00 "Hg22 mi
2:00 PM76 °FScattered clouds.3 mph41%30.00 "Hg22 mi
1:00 PM74 °FScattered clouds.5 mph41%30.02 "Hg19 mi
12:00 PM73 °FPartly sunny.3 mph45%30.03 "Hg25 mi
11:00 AM71 °FScattered clouds.2 mph55%30.03 "Hg25 mi
10:00 AM69 °FPassing clouds.3 mph60%30.03 "Hg19 mi
9:00 AM65 °FPartly sunny.3 mph81%30.03 "Hg12 mi
8:00 AM63 °FOvercast.2 mph88%30.04 "Hg9 mi
7:00 AM60 °FOvercast.2 mph92%30.05 "Hg7 mi
6:00 AM59 °FOvercast.2 mph94%30.04 "Hg6 mi
5:00 AM60 °FOvercast.2 mph93%30.04 "Hg7 mi
4:00 AM60 °FOvercast.3 mph92%30.04 "Hg6 mi
3:00 AM59 °FLight rain. Overcast.2 mph92%30.05 "Hg9 mi
2:00 AM60 °FLight rain. Overcast.2 mph94%30.05 "Hg6 mi
1:00 AM60 °FLight rain. Overcast.2 mph92%30.06 "Hg7 mi
12:00 AM61 °FLight rain. Overcast.3 mph91%30.05 "Hg6 mi
11:00 PM
Mon, Jun 27
62 °FLight rain. Overcast.2 mph90%30.05 "Hg7 mi
10:00 PM62 °FLight rain. Overcast.2 mph86%30.04 "Hg11 mi
Weather by CustomWeather, © 2016

See weather overviewHow to use our weather pages